Tacoma Narrows, WA

9:09 AM PDT on May 22, 2017 (GMT -0700)
Tacoma Narrows

Weather History for KTIW - November, 2012

Change the Weather History Date:

Friday, November 2, 2012

  Actual Average Record
Temperature  
Mean Temperature 54 °F -  
Max Temperature 57 °F 51 °F 59 °F (2010)
Min Temperature 50 °F 41 °F 32 °F (2002)
Degree Days  
Heating Degree Days 12    
Growing Degree Days 4 (Base 50)    
Moisture  
Dew Point 50 °F    
Average Humidity 91    
Maximum Humidity 100    
Minimum Humidity 77    
Precipitation  
Precipitation 0.28 in - - ()
Sea Level Pressure  
Sea Level Pressure 30.01 in    
Wind  
Wind Speed 0 mph (West)    
Max Wind Speed 4 mph    
Max Gust Speed -    
Visibility 6 miles    
Events Fog , Rain    
Averages and records for this station are not official NWS values.
T = Trace of Precipitation, MM = Missing Value Source: NWS Daily Summary

Daily Weather History Graph

Daily Weather History Graph

Search for Another Location

Airport or City:

Trip Planner

Search our weather history database for the weather conditions in past years. The results will help you decide how hot, cold, wet, or windy it might be!

Date:

Astronomy

Nov. 02, 2012 Rise Set
Actual Time 7:55 AM PDT 5:51 PM PDT
Civil Twilight 7:23 AM PDT 6:23 PM PDT
Nautical Twilight 6:47 AM PDT 6:59 PM PDT
Astronomical Twilight 6:11 AM PDT 7:35 PM PDT
Moon 8:34 PM PDT (11/2) 11:29 AM PDT (11/2)
Length of Visible Light 10h 59m
Length of Day
9h 55m
Waning Gibbous, 86% of the Moon is Illuminated
Nov 2
Waning Gibbous
Nov 6
Last Quarter
Nov 13
New
Nov 20
First Quarter
Nov 28
Full

Hourly Weather History & Observations

Time (PDT) Temp. Dew Point Humidity Pressure Visibility Wind Dir Wind Speed Gust Speed Precip Events Conditions
12:53 AM 53.1 °F 50.0 °F 89% 30.04 in 10.0 mi Calm Calm - N/A   Overcast
1:53 AM 53.1 °F 50.0 °F 89% 30.04 in 10.0 mi Calm Calm - N/A   Overcast
2:53 AM 53.1 °F 50.0 °F 89% 30.04 in 10.0 mi Calm Calm - N/A   Overcast
3:50 AM 51.8 °F 50.0 °F 94% 30.03 in 9.0 mi Calm Calm - N/A   Overcast
3:53 AM 52.0 °F 50.0 °F 93% 30.03 in 9.0 mi Calm Calm - N/A   Mostly Cloudy
4:53 AM 51.1 °F 48.9 °F 92% 30.04 in 8.0 mi Calm Calm - N/A   Mostly Cloudy
5:53 AM 51.1 °F 48.9 °F 92% 30.03 in 9.0 mi Calm Calm - N/A   Partly Cloudy
6:53 AM 53.1 °F 48.9 °F 86% 30.02 in 10.0 mi Calm Calm - N/A   Clear
7:53 AM 50.0 °F 48.0 °F 93% 30.01 in 7.0 mi Calm Calm - N/A   Clear
8:14 AM 50.0 °F 48.2 °F 94% 30.02 in 0.5 mi West 3.5 mph - N/A Fog Fog
8:33 AM 50.0 °F 48.2 °F 94% 30.02 in 3.0 mi Calm Calm - N/A   Mostly Cloudy
8:53 AM 51.1 °F 48.9 °F 92% 30.02 in 3.0 mi Calm Calm - N/A   Scattered Clouds
9:53 AM 52.0 °F 50.0 °F 93% 30.02 in 5.0 mi Calm Calm - N/A   Partly Cloudy
10:39 AM 55.4 °F 51.8 °F 88% 30.03 in 8.0 mi Calm Calm - N/A   Scattered Clouds
10:53 AM 55.0 °F 51.1 °F 86% 30.03 in 10.0 mi Calm Calm - N/A   Scattered Clouds
11:53 AM 55.0 °F 51.1 °F 86% 30.02 in 10.0 mi Calm Calm - N/A   Scattered Clouds
12:53 PM 57.0 °F 51.1 °F 81% 30.01 in 10.0 mi Calm Calm - N/A   Mostly Cloudy
1:53 PM 57.0 °F 51.1 °F 81% 29.99 in 10.0 mi Calm Calm - N/A   Mostly Cloudy
2:53 PM 57.0 °F 50.0 °F 77% 29.99 in 7.0 mi West 3.5 mph - N/A   Overcast
3:53 PM 55.0 °F 50.0 °F 83% 30.00 in 5.0 mi WSW 3.5 mph - 0.01 in Rain Light Rain
4:53 PM 54.0 °F 51.1 °F 90% 29.99 in 5.0 mi Calm Calm - 0.09 in Rain Light Rain
5:53 PM 53.1 °F 51.1 °F 93% 29.99 in 7.0 mi Calm Calm - 0.06 in Rain Light Rain
6:53 PM 53.1 °F 51.1 °F 93% 29.99 in 8.0 mi Calm Calm - 0.01 in   Overcast
7:53 PM 53.1 °F 50.0 °F 89% 29.99 in 9.0 mi NE 3.5 mph - N/A   Overcast
8:26 PM 53.6 °F 50.0 °F 88% 29.98 in 1.8 mi Calm Calm - 0.00 in Rain Light Rain
8:37 PM 51.8 °F 51.8 °F 100% 29.99 in 2.0 mi South 3.5 mph - 0.00 in Rain Light Rain
8:53 PM 53.1 °F 51.1 °F 93% 29.99 in 4.0 mi Calm Calm - 0.01 in Rain Light Rain
9:53 PM 53.1 °F 51.1 °F 93% 29.97 in 5.0 mi North 3.5 mph - 0.08 in Rain Light Rain
10:28 PM 53.6 °F 50.0 °F 88% 29.98 in 7.0 mi Calm Calm - 0.01 in Rain Light Rain
10:53 PM 53.1 °F 51.1 °F 93% 29.98 in 4.0 mi Calm Calm - 0.01 in Rain Light Rain
11:30 PM 51.8 °F 50.0 °F 94% 29.98 in 4.0 mi Calm Calm - 0.01 in Rain Light Rain
11:36 PM 51.8 °F 51.8 °F 100% 29.98 in 2.5 mi Calm Calm - 0.01 in   Overcast
11:45 PM 51.8 °F 51.8 °F 100% 29.98 in 1.0 mi Calm Calm - 0.01 in Rain Light Rain
11:53 PM 52.0 °F 51.1 °F 97% 29.98 in 0.8 mi Calm Calm - 0.01 in Rain Light Rain